OBJECT C, 61896

Orbit data source: Space-Track

You're viewing an Uncataloged Satellite

Recently launched and/or uncataloged satellites may have evolving metadata. Metadata may include but not limited to: Owner, Maufacturer, Bus, Motor, and Mission.

OBJECT C, 61896 is a satellite owned by CASC (CN) in SSO that was launched on Mon, 11 Nov 2024 UTC via a LIJIAN-1 launch vehicle from the Jiuquan Satellite Launch Center, China (JSC). Unknown objects in Earth's orbit typically refer to objects detected orbiting the Earth but have not yet been identified or cataloged. These objects could be anything from previously untracked satellites, spent rocket stages, debris from satellite collisions, or even natural meteoroids temporarily captured by Earth's gravity.

Loading next visibility...
Identifier
61896, 2024-205C
Orbit
SSO
Country
Flag of CNCN / PRC
Related business
None
Manufacturer
SECM?
Mission
Operational Defense Technology
Bus & Motor
Unknown
Mass
~100 kg wet, ~100 kg dry
Launch date (UTC)
2024-11-11 (10 months ago)
Launch vehicle
LIJIAN-1
Launch site
Jiuquan Satellite Launch Center, China (JSC)
Object type
Unknown
Shape & HBR
Box + 2 Pan, 2.5 m
Radar Cross Section
4.795 m², Medium (>0.1 m² and < 1m²)

Expand to show TLE details & history
Last TLE update: 16 hours ago

TLE from 16 hours ago
0 OBJECT C
1 61896U 24205C   25260.34627466  .00010016  00000-0  51968-3 0  9996
2 61896  97.4440 332.0832 0021989 250.4688 109.4170 15.16124511 46899
Epoch: 2025-09-17T08:18Z
TLE epoch observation values (Epoch: 2025-09-17T08:18:38.13Z)
Latitude
-0.00004°
Longitude
-149.09921°
Altitude
525.722 km
Speed
7.597 km/s
True Right ascension
22h 08m 19s
True Declination
0° 00' 00"
Sunlit
Object was in full shadow at epoch
Visualization orbit readout
Latitude
Unknown
Longitude
Unknown
Altitude
Unknown
Speed
Unknown
Apparent Right ascension
Unknown
Apparent Declination
Unknown
Sunlit
N/A
Visualization observer readout
Local Sidereal Time
17:33:37
Azimuth
Unknown
Elevation
Unknown
Doppler factor
Unknown
Orbital elements
Apogee altitude
529.696 km
Perigee altitude
499.383 km
Semi-major axis
6,892.676 km
Eccentricity
0.0022
Inclination
97.444°
RAAN
332.0832°
Arg. of periapsis
250.4688°
True anomaly
109.65443°
Mean anomaly
109.417°
Eccentric anomaly
109.53573°
Mean motion
3.79281 °/min
Orbital period
94.92 mins
BSTAR
0.00051968
Loading maneuver chart data...
Computing Atmospheric mass density...
Loading historical data...
Loading historical data...
Loading historical data...
Loading historical data...
Loading historical data...
Loading historical data...
Loading historical data...

Documentation

Showing up to 5 results
|